Zurück zum Katalog

STARLINK-36245

AktivKommunikationVLEO
NORAD 68328·PAYLOAD·🇺🇸 United States

Gestartet Mar 22, 2026 von Cape Canaveral Space Force Station

Loading…

Nächste Überflüge (nächste 24 Stunden)

TLE

AktuellSource: CelesTrak SupGP

Epoche: Sep 14, 2026, 22:37 UTC

1 68328C 26059H   26257.94284722 -.00030587  00000+0 -90346-3 0  2575
2 68328  53.1587 187.4996 0001315  88.8715 326.1336 15.34414763    12

Verfolge STARLINK-36245 in Echtzeit mit AllMySat

Download on the App Store